Time,TemperatureF,DewpointF,PressureIn,WindDirection,WindDirectionDegrees,WindSpeedMPH,WindSpeedGustMPH,Humidity,HourlyPrecipIn,Conditions,Clouds,dailyrainin,SoftwareType,DateUTC
2013-09-08 00:04:00,58.7,48.9,29.80,NNW,329,0.0,0.0,70,0.00,CLR,SKC,0.00,WeatherDisplay:10.37,2013-09-08 06:04:00,
2013-09-08 00:09:00,58.6,50.3,29.80,NNW,329,0.0,0.0,74,0.00,CLR,SKC,0.00,WeatherDisplay:10.37,2013-09-08 06:09:00,
2013-09-08 00:14:00,58.2,49.6,29.80,NNW,329,0.0,0.0,73,0.00,CLR,SKC,0.00,WeatherDisplay:10.37,2013-09-08 06:14:00,
2013-09-08 00:19:00,58.3,50.0,29.80,NNW,329,0.0,0.0,74,0.00,CLR,SKC,0.00,WeatherDisplay:10.37,2013-09-08 06:19:00,
2013-09-08 00:25:00,58.5,49.5,29.80,NNW,329,0.0,0.0,72,0.00,CLR,SKC,0.00,WeatherDisplay:10.37,2013-09-08 06:25:00,
2013-09-08 00:30:00,58.6,50.0,29.80,NNW,329,0.0,0.0,73,0.00,CLR,SKC,0.00,WeatherDisplay:10.37,2013-09-08 06:30:00,
2013-09-08 00:36:00,59.1,49.3,29.80,NNW,329,1.0,1.0,70,0.00,CLR,SKC,0.00,WeatherDisplay:10.37,2013-09-08 06:36:00,
2013-09-08 00:41:00,59.3,49.5,29.80,NNW,329,1.1,1.1,70,0.00,CLR,SKC,0.00,WeatherDisplay:10.37,2013-09-08 06:41:00,
2013-09-08 00:46:00,59.5,48.9,29.80,NNW,329,0.0,0.0,68,0.00,CLR,SKC,0.00,WeatherDisplay:10.37,2013-09-08 06:46:00,
2013-09-08 00:51:00,59.4,49.2,29.80,NNW,329,0.0,0.0,69,0.00,CLR,SKC,0.00,WeatherDisplay:10.37,2013-09-08 06:51:00,
2013-09-08 00:56:00,59.2,49.5,29.80,NNW,329,0.0,1.0,70,0.00,CLR,SKC,0.00,WeatherDisplay:10.37,2013-09-08 06:56:00,
2013-09-08 01:01:00,58.7,49.7,29.80,NNW,329,0.0,0.0,72,0.00,CLR,SKC,0.00,WeatherDisplay:10.37,2013-09-08 07:01:00,
2013-09-08 01:06:00,58.4,49.0,29.80,NNW,329,0.0,1.0,71,0.00,CLR,SKC,0.00,WeatherDisplay:10.37,2013-09-08 07:06:00,
2013-09-08 01:11:00,58.0,49.7,29.80,NNW,329,0.0,1.0,74,0.00,CLR,SKC,0.00,WeatherDisplay:10.37,2013-09-08 07:11:00,
2013-09-08 01:16:00,57.8,49.2,29.80,NNW,329,0.0,0.0,73,0.00,CLR,SKC,0.00,WeatherDisplay:10.37,2013-09-08 07:16:00,
2013-09-08 01:22:00,57.8,48.5,29.80,NNW,329,0.0,0.0,71,0.00,CLR,SKC,0.00,WeatherDisplay:10.37,2013-09-08 07:22:00,
2013-09-08 01:27:00,57.5,49.3,29.80,NNW,329,0.0,0.0,74,0.00,CLR,SKC,0.00,WeatherDisplay:10.37,2013-09-08 07:27:00,
2013-09-08 01:32:00,57.0,49.2,29.81,NNW,329,0.0,0.0,75,0.00,CLR,SKC,0.00,WeatherDisplay:10.37,2013-09-08 07:32:00,
2013-09-08 01:38:00,56.2,49.4,29.81,NNW,329,0.0,0.0,78,0.00,CLR,SKC,0.00,WeatherDisplay:10.37,2013-09-08 07:38:00,
2013-09-08 01:44:00,55.7,48.9,29.81,NNW,329,0.0,0.0,78,0.00,CLR,SKC,0.00,WeatherDisplay:10.37,2013-09-08 07:44:00,
2013-09-08 01:49:00,55.7,48.6,29.81,NNW,329,0.0,0.0,77,0.00,CLR,SKC,0.00,WeatherDisplay:10.37,2013-09-08 07:49:00,
2013-09-08 01:54:00,55.6,49.2,29.81,NNW,329,0.0,0.0,79,0.00,CLR,SKC,0.00,WeatherDisplay:10.37,2013-09-08 07:54:00,
2013-09-08 01:59:00,55.4,49.0,29.81,NNW,329,0.0,0.0,79,0.00,CLR,SKC,0.00,WeatherDisplay:10.37,2013-09-08 07:59:00,
2013-09-08 02:04:00,55.3,49.6,29.81,NNW,329,0.0,0.0,81,0.00,CLR,SKC,0.00,WeatherDisplay:10.37,2013-09-08 08:04:00,
2013-09-08 02:09:00,55.1,49.4,29.81,NNW,329,0.0,0.0,81,0.00,CLR,SKC,0.00,WeatherDisplay:10.37,2013-09-08 08:09:00,
2013-09-08 02:14:00,54.8,49.4,29.81,NNW,329,0.0,0.0,82,0.00,CLR,SKC,0.00,WeatherDisplay:10.37,2013-09-08 08:14:00,
2013-09-08 02:19:00,54.6,49.5,29.81,NNW,329,0.0,0.0,83,0.00,CLR,SKC,0.00,WeatherDisplay:10.37,2013-09-08 08:19:00,
2013-09-08 02:24:00,54.2,49.1,29.81,NNW,329,0.0,0.0,83,0.00,CLR,SKC,0.00,WeatherDisplay:10.37,2013-09-08 08:24:00,
2013-09-08 02:29:00,53.9,49.2,29.81,NNW,329,0.0,0.0,84,0.00,CLR,SKC,0.00,WeatherDisplay:10.37,2013-09-08 08:29:00,
2013-09-08 02:34:00,53.9,48.9,29.81,NNW,329,0.0,0.0,83,0.00,CLR,SKC,0.00,WeatherDisplay:10.37,2013-09-08 08:34:00,
2013-09-08 02:39:00,54.0,49.0,29.81,NNW,329,0.0,0.0,83,0.00,CLR,SKC,0.00,WeatherDisplay:10.37,2013-09-08 08:39:00,
2013-09-08 02:44:00,53.9,48.9,29.81,NNW,329,0.0,0.0,83,0.00,CLR,SKC,0.00,WeatherDisplay:10.37,2013-09-08 08:44:00,
2013-09-08 02:49:00,53.7,48.7,29.81,NNW,329,0.0,0.0,83,0.00,CLR,SKC,0.00,WeatherDisplay:10.37,2013-09-08 08:49:00,
2013-09-08 02:54:00,53.5,48.8,29.81,NNW,329,0.0,0.0,84,0.00,CLR,SKC,0.00,WeatherDisplay:10.37,2013-09-08 08:54:00,
2013-09-08 02:59:00,53.3,48.6,29.81,NNW,329,0.0,0.0,84,0.00,CLR,SKC,0.00,WeatherDisplay:10.37,2013-09-08 08:59:00,
2013-09-08 03:05:00,53.2,48.5,29.81,NNW,329,0.0,0.0,84,0.00,CLR,SKC,0.00,WeatherDisplay:10.37,2013-09-08 09:05:00,
2013-09-08 03:10:00,53.1,48.4,29.81,NNW,329,0.0,0.0,84,0.00,CLR,SKC,0.00,WeatherDisplay:10.37,2013-09-08 09:10:00,
2013-09-08 03:15:00,53.1,47.7,29.81,NNW,329,0.0,0.0,82,0.00,CLR,SKC,0.00,WeatherDisplay:10.37,2013-09-08 09:15:00,
2013-09-08 03:20:00,53.0,48.3,29.81,NNW,329,0.0,0.0,84,0.00,CLR,SKC,0.00,WeatherDisplay:10.37,2013-09-08 09:20:00,
2013-09-08 03:25:00,52.8,47.8,29.81,NNW,329,0.0,0.2,83,0.00,CLR,SKC,0.00,WeatherDisplay:10.37,2013-09-08 09:25:00,
2013-09-08 03:29:00,52.7,48.0,29.81,NNW,329,0.0,0.0,84,0.00,CLR,SKC,0.00,WeatherDisplay:10.37,2013-09-08 09:29:00,
2013-09-08 03:34:00,52.4,47.7,29.81,NNW,329,0.0,0.0,84,0.00,CLR,SKC,0.00,WeatherDisplay:10.37,2013-09-08 09:34:00,
2013-09-08 03:39:00,52.2,47.5,29.81,NNW,329,0.0,0.0,84,0.00,CLR,SKC,0.00,WeatherDisplay:10.37,2013-09-08 09:39:00,
2013-09-08 03:44:00,52.1,47.7,29.81,NNW,329,0.0,0.0,85,0.00,CLR,SKC,0.00,WeatherDisplay:10.37,2013-09-08 09:44:00,
2013-09-08 03:50:00,51.9,47.5,29.81,NNW,329,0.0,0.0,85,0.00,CLR,SKC,0.00,WeatherDisplay:10.37,2013-09-08 09:50:00,
2013-09-08 03:55:00,51.8,47.7,29.81,NNW,329,0.0,0.0,86,0.00,CLR,SKC,0.00,WeatherDisplay:10.37,2013-09-08 09:55:00,
2013-09-08 04:00:00,51.6,47.5,29.81,NNW,329,0.0,0.0,86,0.00,CLR,SKC,0.00,WeatherDisplay:10.37,2013-09-08 10:00:00,
2013-09-08 04:05:00,51.5,47.5,29.81,NNW,329,0.0,0.0,86,0.00,CLR,SKC,0.00,WeatherDisplay:10.37,2013-09-08 10:05:00,
2013-09-08 04:10:00,51.4,47.7,29.81,NNW,329,0.0,0.0,87,0.00,CLR,SKC,0.00,WeatherDisplay:10.37,2013-09-08 10:10:00,
2013-09-08 04:15:00,51.2,47.5,29.81,NNW,329,0.0,0.0,87,0.00,CLR,SKC,0.00,WeatherDisplay:10.37,2013-09-08 10:15:00,
2013-09-08 04:20:00,51.0,47.3,29.81,NNW,329,0.0,0.0,87,0.00,CLR,SKC,0.00,WeatherDisplay:10.37,2013-09-08 10:20:00,
2013-09-08 04:25:00,51.0,47.6,29.81,NNW,329,0.0,0.0,88,0.00,CLR,SKC,0.00,WeatherDisplay:10.37,2013-09-08 10:25:00,
2013-09-08 04:31:00,50.8,47.4,29.80,NNW,329,0.0,0.0,88,0.00,CLR,SKC,0.00,WeatherDisplay:10.37,2013-09-08 10:31:00,
2013-09-08 04:36:00,50.6,47.2,29.81,NNW,329,0.0,0.0,88,0.00,CLR,SKC,0.00,WeatherDisplay:10.37,2013-09-08 10:36:00,
2013-09-08 04:41:00,50.5,47.1,29.81,NNW,329,0.0,0.0,88,0.00,CLR,SKC,0.00,WeatherDisplay:10.37,2013-09-08 10:41:00,
2013-09-08 04:46:00,50.3,46.9,29.81,NNW,329,0.0,0.0,88,0.00,CLR,SKC,0.00,WeatherDisplay:10.37,2013-09-08 10:46:00,
2013-09-08 04:51:00,50.0,46.6,29.81,NNW,329,0.0,0.0,88,0.00,CLR,SKC,0.00,WeatherDisplay:10.37,2013-09-08 10:51:00,
2013-09-08 04:56:00,49.9,46.5,29.81,NNW,329,0.0,0.0,88,0.00,CLR,SKC,0.00,WeatherDisplay:10.37,2013-09-08 10:56:00,
2013-09-08 05:01:00,49.7,46.3,29.81,NNW,329,0.0,0.0,88,0.00,CLR,SKC,0.00,WeatherDisplay:10.37,2013-09-08 11:01:00,
2013-09-08 05:06:00,49.7,46.6,29.81,NNW,329,0.0,0.0,89,0.00,CLR,SKC,0.00,WeatherDisplay:10.37,2013-09-08 11:06:00,
2013-09-08 05:12:00,49.6,46.5,29.82,NNW,329,0.0,0.0,89,0.00,CLR,SKC,0.00,WeatherDisplay:10.37,2013-09-08 11:12:00,
2013-09-08 05:17:00,49.5,46.1,29.82,NNW,329,0.0,0.0,88,0.00,CLR,SKC,0.00,WeatherDisplay:10.37,2013-09-08 11:17:00,
2013-09-08 05:22:00,49.5,46.4,29.82,NNW,329,0.0,0.0,89,0.00,CLR,SKC,0.00,WeatherDisplay:10.37,2013-09-08 11:22:00,
2013-09-08 05:27:00,49.5,46.1,29.82,NNW,329,0.0,0.0,88,0.00,CLR,SKC,0.00,WeatherDisplay:10.37,2013-09-08 11:27:00,
2013-09-08 05:32:00,49.4,46.3,29.82,NNW,329,0.0,0.0,89,0.00,CLR,SKC,0.00,WeatherDisplay:10.37,2013-09-08 11:32:00,
2013-09-08 05:37:00,49.3,46.2,29.82,NNW,329,0.0,0.0,89,0.00,CLR,SKC,0.00,WeatherDisplay:10.37,2013-09-08 11:37:00,
2013-09-08 05:42:00,49.1,46.0,29.82,NNW,329,0.0,0.0,89,0.00,CLR,SKC,0.00,WeatherDisplay:10.37,2013-09-08 11:42:00,
2013-09-08 05:47:00,49.0,45.6,29.82,NNW,329,0.0,0.0,88,0.00,CLR,SKC,0.00,WeatherDisplay:10.37,2013-09-08 11:47:00,
2013-09-08 05:52:00,49.0,45.9,29.82,NNW,329,0.0,0.0,89,0.00,CLR,SKC,0.00,WeatherDisplay:10.37,2013-09-08 11:52:00,
2013-09-08 05:58:00,48.9,45.5,29.82,NNW,329,0.0,0.0,88,0.00,CLR,SKC,0.00,WeatherDisplay:10.37,2013-09-08 11:58:00,
2013-09-08 06:03:00,48.9,45.8,29.82,NNW,329,0.0,0.0,89,0.00,CLR,SKC,0.00,WeatherDisplay:10.37,2013-09-08 12:03:00,
2013-09-08 06:08:00,48.6,45.5,29.82,NNW,329,0.0,0.0,89,0.00,CLR,SKC,0.00,WeatherDisplay:10.37,2013-09-08 12:08:00,
2013-09-08 06:13:00,48.5,45.7,29.82,NNW,329,0.0,0.0,90,0.00,CLR,SKC,0.00,WeatherDisplay:10.37,2013-09-08 12:13:00,
2013-09-08 06:18:00,48.3,45.5,29.82,NNW,329,0.0,0.0,90,0.00,CLR,SKC,0.00,WeatherDisplay:10.37,2013-09-08 12:18:00,
2013-09-08 06:23:00,48.3,45.5,29.82,NNW,329,0.0,0.0,90,0.00,CLR,SKC,0.00,WeatherDisplay:10.37,2013-09-08 12:23:00,
2013-09-08 06:28:00,48.3,45.5,29.82,NNW,329,0.0,0.0,90,0.00,CLR,SKC,0.00,WeatherDisplay:10.37,2013-09-08 12:28:00,
2013-09-08 06:33:00,48.2,45.7,29.82,NNW,329,0.0,0.0,91,0.00,CLR,SKC,0.00,WeatherDisplay:10.37,2013-09-08 12:33:00,
2013-09-08 06:38:00,48.1,45.6,29.83,NNW,329,0.0,0.0,91,0.00,CLR,SKC,0.00,WeatherDisplay:10.37,2013-09-08 12:38:00,
2013-09-08 06:43:00,48.0,45.5,29.83,NNW,329,0.0,0.0,91,0.00,CLR,SKC,0.00,WeatherDisplay:10.37,2013-09-08 12:43:00,
2013-09-08 06:48:00,48.0,45.5,29.82,NNW,329,0.0,0.0,91,0.00,CLR,SKC,0.00,WeatherDisplay:10.37,2013-09-08 12:48:00,
2013-09-08 06:53:00,48.0,45.5,29.83,NNW,329,0.0,0.0,91,0.00,CLR,SKC,0.00,WeatherDisplay:10.37,2013-09-08 12:53:00,
2013-09-08 06:58:00,47.9,45.4,29.83,NNW,329,0.0,0.0,91,0.00,CLR,SKC,0.00,WeatherDisplay:10.37,2013-09-08 12:58:00,
2013-09-08 07:03:00,47.9,45.7,29.83,NNW,329,0.0,0.0,92,0.00,CLR,SKC,0.00,WeatherDisplay:10.37,2013-09-08 13:03:00,
2013-09-08 07:08:00,47.9,45.7,29.83,NNW,329,0.0,0.0,92,0.00,CLR,SKC,0.00,WeatherDisplay:10.37,2013-09-08 13:08:00,
2013-09-08 07:13:00,47.9,45.7,29.83,NNW,329,0.0,0.0,92,0.00,CLR,SKC,0.00,WeatherDisplay:10.37,2013-09-08 13:13:00,
2013-09-08 07:18:00,47.9,45.7,29.83,NNW,329,0.0,0.0,92,0.00,CLR,SKC,0.00,WeatherDisplay:10.37,2013-09-08 13:18:00,
2013-09-08 07:23:00,47.9,45.7,29.83,NNW,329,0.0,0.0,92,0.00,CLR,SKC,0.00,WeatherDisplay:10.37,2013-09-08 13:23:00,
2013-09-08 07:28:00,48.0,46.1,29.83,NNW,329,0.0,0.0,93,0.00,CLR,SKC,0.00,WeatherDisplay:10.37,2013-09-08 13:28:00,
2013-09-08 07:33:00,48.0,46.1,29.83,NNW,329,0.0,0.0,93,0.00,CLR,SKC,0.00,WeatherDisplay:10.37,2013-09-08 13:33:00,
2013-09-08 07:38:00,48.1,46.2,29.83,NNW,329,0.0,0.0,93,0.00,CLR,SKC,0.00,WeatherDisplay:10.37,2013-09-08 13:38:00,
2013-09-08 07:43:00,48.4,46.2,29.83,NNW,329,0.0,0.0,92,0.00,CLR,SKC,0.00,WeatherDisplay:10.37,2013-09-08 13:43:00,
2013-09-08 07:48:00,48.9,47.0,29.82,NNW,329,0.0,0.0,93,0.00,CLR,SKC,0.00,WeatherDisplay:10.37,2013-09-08 13:48:00,
2013-09-08 07:53:00,49.1,46.9,29.82,NNW,329,0.0,0.0,92,0.00,CLR,SKC,0.00,WeatherDisplay:10.37,2013-09-08 13:53:00,
2013-09-08 07:58:00,49.5,47.3,29.82,NNW,329,0.0,0.0,92,0.00,CLR,SKC,0.00,WeatherDisplay:10.37,2013-09-08 13:58:00,
2013-09-08 08:03:00,49.8,47.3,29.82,NNW,329,1.1,1.1,91,0.00,CLR,SKC,0.00,WeatherDisplay:10.37,2013-09-08 14:03:00,
2013-09-08 08:08:00,50.0,47.5,29.83,WSW,248,0.0,0.0,91,0.00,CLR,SKC,0.00,WeatherDisplay:10.37,2013-09-08 14:08:00,
2013-09-08 08:12:00,50.3,47.8,29.83,WSW,248,1.1,0.0,91,0.00,CLR,SKC,0.00,WeatherDisplay:10.37,2013-09-08 14:12:00,
2013-09-08 08:17:00,50.7,48.2,29.82,WSW,248,0.0,0.0,91,0.00,CLR,SKC,0.00,WeatherDisplay:10.37,2013-09-08 14:17:00,
2013-09-08 08:22:00,50.9,48.1,29.82,WSW,248,0.0,0.0,90,0.00,CLR,SKC,0.00,WeatherDisplay:10.37,2013-09-08 14:22:00,
2013-09-08 08:27:00,51.3,48.8,29.83,WSW,248,0.0,0.0,91,0.00,CLR,SKC,0.00,WeatherDisplay:10.37,2013-09-08 14:27:00,
2013-09-08 08:33:00,51.7,48.9,29.83,WSW,248,0.0,0.0,90,0.00,CLR,SKC,0.00,WeatherDisplay:10.37,2013-09-08 14:33:00,
2013-09-08 08:38:00,52.0,49.2,29.82,WSW,248,0.0,0.0,90,0.00,CLR,SKC,0.00,WeatherDisplay:10.37,2013-09-08 14:38:00,
2013-09-08 08:43:00,52.3,49.5,29.82,WSW,248,0.0,0.0,90,0.00,CLR,SKC,0.00,WeatherDisplay:10.37,2013-09-08 14:43:00,
2013-09-08 08:48:00,52.0,48.3,29.82,NNE,13,1.1,0.0,87,0.00,CLR,SKC,0.00,WeatherDisplay:10.37,2013-09-08 14:48:00,
2013-09-08 08:53:00,51.8,48.1,29.82,NNE,13,1.1,0.0,87,0.00,CLR,SKC,0.00,WeatherDisplay:10.37,2013-09-08 14:53:00,
2013-09-08 08:58:00,51.5,47.8,29.83,NNE,13,0.0,0.0,87,0.00,CLR,SKC,0.00,WeatherDisplay:10.37,2013-09-08 14:58:00,
2013-09-08 09:03:00,51.4,47.7,29.83,NNE,13,1.1,0.0,87,0.00,CLR,SKC,0.00,WeatherDisplay:10.37,2013-09-08 15:03:00,
2013-09-08 09:09:00,51.6,48.2,29.83,NNE,13,0.0,0.0,88,0.00,CLR,SKC,0.00,WeatherDisplay:10.37,2013-09-08 15:09:00,
2013-09-08 09:14:00,51.9,48.5,29.83,NNE,13,0.0,0.0,88,0.00,CLR,SKC,0.00,WeatherDisplay:10.37,2013-09-08 15:14:00,
2013-09-08 09:19:00,52.3,48.9,29.83,NNE,13,0.0,0.0,88,0.00,CLR,SKC,0.00,WeatherDisplay:10.37,2013-09-08 15:19:00,
2013-09-08 09:24:00,52.9,48.8,29.83,NNE,13,0.0,0.0,86,0.00,CLR,SKC,0.00,WeatherDisplay:10.37,2013-09-08 15:24:00,
2013-09-08 09:29:00,53.5,48.8,29.83,NNE,13,1.1,0.0,84,0.00,CLR,SKC,0.00,WeatherDisplay:10.37,2013-09-08 15:29:00,
2013-09-08 09:35:00,54.3,48.6,29.83,NNE,12,1.0,0.0,81,0.00,CLR,SKC,0.00,WeatherDisplay:10.37,2013-09-08 15:35:00,
2013-09-08 09:40:00,54.9,48.8,29.83,NNE,13,0.0,0.0,80,0.00,CLR,SKC,0.00,WeatherDisplay:10.37,2013-09-08 15:40:00,
2013-09-08 09:45:00,55.3,48.9,29.83,NNE,13,0.0,0.0,79,0.00,CLR,SKC,0.00,WeatherDisplay:10.37,2013-09-08 15:45:00,
2013-09-08 09:50:00,55.5,48.8,29.83,NNE,13,0.0,0.0,78,0.00,CLR,SKC,0.00,WeatherDisplay:10.37,2013-09-08 15:50:00,
2013-09-08 09:55:00,55.8,49.4,29.83,NNE,12,1.1,0.0,79,0.00,CLR,SKC,0.00,WeatherDisplay:10.37,2013-09-08 15:55:00,
2013-09-08 10:00:00,56.0,49.2,29.83,NNE,13,0.0,0.0,78,0.00,CLR,SKC,0.00,WeatherDisplay:10.37,2013-09-08 16:00:00,
2013-09-08 10:05:00,56.7,49.6,29.83,NNE,13,1.1,0.0,77,0.00,CLR,SKC,0.00,WeatherDisplay:10.37,2013-09-08 16:05:00,
2013-09-08 10:11:00,58.0,49.8,29.83,NNE,33,1.1,1.1,74,0.00,CLR,SKC,0.00,WeatherDisplay:10.37,2013-09-08 16:11:00,
2013-09-08 10:17:00,58.7,49.7,29.84,NE,34,0.0,2.0,72,0.00,CLR,SKC,0.00,WeatherDisplay:10.37,2013-09-08 16:17:00,
2013-09-08 10:22:00,59.1,49.7,29.83,NE,41,2.3,2.3,71,0.00,CLR,SKC,0.00,WeatherDisplay:10.37,2013-09-08 16:22:00,
2013-09-08 10:27:00,59.0,50.0,29.84,NE,41,1.1,1.1,72,0.00,CLR,SKC,0.00,WeatherDisplay:10.37,2013-09-08 16:27:00,
2013-09-08 10:32:00,58.9,49.9,29.84,NE,41,0.0,0.0,72,0.00,CLR,SKC,0.00,WeatherDisplay:10.37,2013-09-08 16:32:00,
2013-09-08 10:38:00,58.9,50.3,29.84,NE,34,1.1,1.1,73,0.00,CLR,SKC,0.00,WeatherDisplay:10.37,2013-09-08 16:38:00,
2013-09-08 10:43:00,58.8,50.2,29.84,NE,40,2.3,2.3,73,0.00,CLR,SKC,0.00,WeatherDisplay:10.37,2013-09-08 16:43:00,
2013-09-08 10:48:00,58.7,50.1,29.84,NE,44,1.1,1.1,73,0.00,CLR,SKC,0.00,WeatherDisplay:10.37,2013-09-08 16:48:00,
2013-09-08 10:53:00,58.7,50.4,29.84,NE,52,1.1,0.0,74,0.00,CLR,SKC,0.00,WeatherDisplay:10.37,2013-09-08 16:53:00,
2013-09-08 10:59:00,58.9,50.3,29.84,NE,50,1.1,1.1,73,0.00,CLR,SKC,0.00,WeatherDisplay:10.37,2013-09-08 16:59:00,
2013-09-08 11:04:00,59.1,50.8,29.84,NE,50,1.1,1.1,74,0.00,CLR,SKC,0.00,WeatherDisplay:10.37,2013-09-08 17:04:00,
2013-09-08 11:09:00,59.3,50.6,29.84,NE,50,1.1,1.1,73,0.00,CLR,SKC,0.00,WeatherDisplay:10.37,2013-09-08 17:09:00,
2013-09-08 11:14:00,59.3,50.3,29.84,NE,50,1.1,1.1,72,0.00,CLR,SKC,0.00,WeatherDisplay:10.37,2013-09-08 17:14:00,
2013-09-08 11:19:00,59.5,50.8,29.84,NE,51,2.3,2.3,73,0.00,CLR,SKC,0.00,WeatherDisplay:10.37,2013-09-08 17:19:00,
2013-09-08 11:24:00,60.4,51.3,29.84,NE,51,1.1,1.1,72,0.00,CLR,SKC,0.00,WeatherDisplay:10.37,2013-09-08 17:24:00,
2013-09-08 11:29:00,61.8,51.5,29.84,ENE,57,3.5,3.5,69,0.00,CLR,SKC,0.00,WeatherDisplay:10.37,2013-09-08 17:29:00,
2013-09-08 11:34:00,62.3,51.2,29.83,NNE,27,2.0,2.0,67,0.00,CLR,SKC,0.00,WeatherDisplay:10.37,2013-09-08 17:34:00,
2013-09-08 11:39:00,63.0,51.9,29.84,NE,46,2.3,2.3,67,0.00,CLR,SKC,0.00,WeatherDisplay:10.37,2013-09-08 17:39:00,
2013-09-08 11:44:00,63.4,51.0,29.84,NE,49,3.5,3.5,64,0.00,CLR,SKC,0.00,WeatherDisplay:10.37,2013-09-08 17:44:00,
2013-09-08 11:50:00,62.9,51.0,29.83,NE,52,3.5,3.5,65,0.00,CLR,SKC,0.00,WeatherDisplay:10.37,2013-09-08 17:50:00,
2013-09-08 11:55:00,62.5,51.0,29.83,NE,42,1.1,1.1,66,0.00,CLR,SKC,0.00,WeatherDisplay:10.37,2013-09-08 17:55:00,
2013-09-08 12:00:00,63.0,51.0,29.84,ENE,58,2.3,2.3,65,0.00,CLR,SKC,0.00,WeatherDisplay:10.37,2013-09-08 18:00:00,
2013-09-08 12:05:00,62.5,51.0,29.84,NE,53,3.5,3.5,66,0.00,CLR,SKC,0.00,WeatherDisplay:10.37,2013-09-08 18:05:00,
2013-09-08 12:10:00,61.5,50.8,29.84,NE,53,1.1,1.1,68,0.00,CLR,SKC,0.00,WeatherDisplay:10.37,2013-09-08 18:10:00,
2013-09-08 12:15:00,60.7,50.9,29.84,NE,53,2.3,2.3,70,0.00,CLR,SKC,0.00,WeatherDisplay:10.37,2013-09-08 18:15:00,
2013-09-08 12:20:00,60.0,51.3,29.84,NE,53,2.3,2.3,73,0.00,CLR,SKC,0.00,WeatherDisplay:10.37,2013-09-08 18:20:00,
2013-09-08 12:25:00,59.6,51.3,29.84,NE,53,1.1,1.1,74,0.00,CLR,SKC,0.00,WeatherDisplay:10.37,2013-09-08 18:25:00,
2013-09-08 12:30:00,59.5,51.9,29.83,NE,53,1.1,1.1,76,0.00,CLR,SKC,0.00,WeatherDisplay:10.37,2013-09-08 18:30:00,
2013-09-08 12:35:00,59.5,52.3,29.83,NE,53,2.0,2.0,77,0.00,CLR,SKC,0.00,WeatherDisplay:10.37,2013-09-08 18:35:00,
2013-09-08 12:40:00,59.6,52.4,29.83,NE,54,1.1,1.1,77,0.00,CLR,SKC,0.00,WeatherDisplay:10.37,2013-09-08 18:40:00,
2013-09-08 12:45:00,59.7,52.1,29.83,NE,54,0.0,0.0,76,0.00,CLR,SKC,0.00,WeatherDisplay:10.37,2013-09-08 18:45:00,
2013-09-08 12:49:00,59.7,51.8,29.83,ENE,62,1.1,1.1,75,0.00,CLR,SKC,0.00,WeatherDisplay:10.37,2013-09-08 18:49:00,
2013-09-08 12:55:00,59.8,51.9,29.83,ENE,62,0.0,0.0,75,0.00,CLR,SKC,0.00,WeatherDisplay:10.37,2013-09-08 18:55:00,
2013-09-08 13:00:00,59.7,51.8,29.83,ENE,62,1.0,0.0,75,0.00,CLR,SKC,0.00,WeatherDisplay:10.37,2013-09-08 19:00:00,
2013-09-08 13:05:00,59.4,52.2,29.83,ENE,62,1.1,0.0,77,0.00,CLR,SKC,0.00,WeatherDisplay:10.37,2013-09-08 19:05:00,
2013-09-08 13:10:00,58.8,52.6,29.83,ENE,63,0.0,0.0,80,0.00,CLR,SKC,0.00,WeatherDisplay:10.37,2013-09-08 19:10:00,
2013-09-08 13:15:00,58.2,53.1,29.83,ENE,63,0.0,0.0,83,0.00,CLR,SKC,0.00,WeatherDisplay:10.37,2013-09-08 19:15:00,
2013-09-08 13:20:00,57.9,53.4,29.83,ENE,62,0.0,0.0,85,0.00,CLR,SKC,0.00,WeatherDisplay:10.37,2013-09-08 19:20:00,
2013-09-08 13:25:00,57.7,53.2,29.83,ENE,62,0.0,0.0,85,0.00,CLR,SKC,0.00,WeatherDisplay:10.37,2013-09-08 19:25:00,
2013-09-08 13:30:00,57.8,54.3,29.82,ENE,63,0.0,0.0,88,0.00,CLR,SKC,0.00,WeatherDisplay:10.37,2013-09-08 19:30:00,
2013-09-08 13:35:00,57.8,53.6,29.82,ENE,62,0.0,0.0,86,0.00,CLR,SKC,0.00,WeatherDisplay:10.37,2013-09-08 19:35:00,
2013-09-08 13:40:00,58.2,54.0,29.82,ENE,62,1.0,1.0,86,0.00,CLR,SKC,0.00,WeatherDisplay:10.37,2013-09-08 19:40:00,
2013-09-08 13:45:00,58.5,53.7,29.83,ENE,59,0.0,0.0,84,0.00,CLR,SKC,0.00,WeatherDisplay:10.37,2013-09-08 19:45:00,
2013-09-08 13:50:00,58.9,53.7,29.83,ENE,59,0.0,0.0,83,0.00,CLR,SKC,0.00,WeatherDisplay:10.37,2013-09-08 19:50:00,
2013-09-08 13:55:00,59.2,52.7,29.83,ENE,59,0.0,0.0,79,0.00,CLR,SKC,0.00,WeatherDisplay:10.37,2013-09-08 19:55:00,
2013-09-08 14:00:00,60.0,53.8,29.83,ENE,59,1.1,1.1,80,0.00,CLR,SKC,0.00,WeatherDisplay:10.37,2013-09-08 20:00:00,
2013-09-08 14:05:00,60.5,52.9,29.83,ENE,59,1.1,0.0,76,0.00,CLR,SKC,0.00,WeatherDisplay:10.37,2013-09-08 20:05:00,
2013-09-08 14:11:00,60.4,52.8,29.83,ENE,59,0.0,0.0,76,0.00,CLR,SKC,0.00,WeatherDisplay:10.37,2013-09-08 20:11:00,
2013-09-08 14:16:00,60.3,52.3,29.83,ENE,59,0.0,0.0,75,0.00,CLR,SKC,0.00,WeatherDisplay:10.37,2013-09-08 20:16:00,
2013-09-08 14:21:00,60.6,52.6,29.82,ENE,59,0.0,0.0,75,0.00,CLR,SKC,0.00,WeatherDisplay:10.37,2013-09-08 20:21:00,
2013-09-08 14:26:00,61.4,53.0,29.82,NNE,30,0.0,0.0,74,0.00,CLR,SKC,0.00,WeatherDisplay:10.37,2013-09-08 20:26:00,
2013-09-08 14:31:00,61.8,53.1,29.82,NE,49,1.1,1.1,73,0.00,CLR,SKC,0.00,WeatherDisplay:10.37,2013-09-08 20:31:00,
2013-09-08 14:36:00,62.4,53.6,29.82,NE,49,1.1,1.1,73,0.00,CLR,SKC,0.00,WeatherDisplay:10.37,2013-09-08 20:36:00,
2013-09-08 14:42:00,63.2,52.8,29.82,East,98,1.0,3.0,69,0.00,CLR,SKC,0.00,WeatherDisplay:10.37,2013-09-08 20:42:00,
2013-09-08 14:47:00,63.4,53.4,29.81,NE,38,0.0,3.0,70,0.00,CLR,SKC,0.00,WeatherDisplay:10.37,2013-09-08 20:47:00,
2013-09-08 14:52:00,63.3,53.3,29.81,NNE,25,0.0,1.0,70,0.00,CLR,SKC,0.00,WeatherDisplay:10.37,2013-09-08 20:52:00,
2013-09-08 14:57:00,63.1,53.2,29.81,ENE,61,0.0,0.0,70,0.00,CLR,SKC,0.00,WeatherDisplay:10.37,2013-09-08 20:57:00,
2013-09-08 15:02:00,63.1,53.9,29.80,ENE,61,0.0,0.0,72,0.00,CLR,SKC,0.00,WeatherDisplay:10.37,2013-09-08 21:02:00,
2013-09-08 15:07:00,63.4,53.8,29.80,South,170,1.1,1.1,71,0.00,CLR,SKC,0.00,WeatherDisplay:10.37,2013-09-08 21:07:00,
2013-09-08 15:12:00,64.4,54.8,29.80,South,170,1.1,1.1,71,0.00,CLR,SKC,0.00,WeatherDisplay:10.37,2013-09-08 21:12:00,
2013-09-08 15:17:00,64.5,52.9,29.80,South,171,0.0,0.0,66,0.00,CLR,SKC,0.00,WeatherDisplay:10.37,2013-09-08 21:17:00,
2013-09-08 15:22:00,64.2,53.4,29.80,WSW,246,2.3,0.0,68,0.00,CLR,SKC,0.00,WeatherDisplay:10.37,2013-09-08 21:22:00,
2013-09-08 15:27:00,63.9,53.5,29.79,SW,222,0.0,0.0,69,0.00,CLR,SKC,0.00,WeatherDisplay:10.37,2013-09-08 21:27:00,
2013-09-08 15:32:00,63.5,53.5,29.79,SW,222,0.0,0.0,70,0.00,CLR,SKC,0.00,WeatherDisplay:10.37,2013-09-08 21:32:00,
2013-09-08 15:37:00,63.4,53.8,29.79,SW,228,0.0,0.0,71,0.00,CLR,SKC,0.00,WeatherDisplay:10.37,2013-09-08 21:37:00,
2013-09-08 15:43:00,63.4,54.2,29.79,West,261,0.0,0.0,72,0.00,CLR,SKC,0.00,WeatherDisplay:10.37,2013-09-08 21:43:00,
2013-09-08 15:48:00,63.4,54.6,29.79,West,261,0.0,0.0,73,0.00,CLR,SKC,0.00,WeatherDisplay:10.37,2013-09-08 21:48:00,
2013-09-08 15:53:00,63.5,54.3,29.79,West,259,1.1,1.1,72,0.00,CLR,SKC,0.00,WeatherDisplay:10.37,2013-09-08 21:53:00,
2013-09-08 15:58:00,63.5,54.7,29.78,SSW,211,2.3,2.3,73,0.00,CLR,SKC,0.00,WeatherDisplay:10.37,2013-09-08 21:58:00,
2013-09-08 16:03:00,63.5,55.4,29.78,WSW,252,1.1,0.0,75,0.00,CLR,SKC,0.00,WeatherDisplay:10.37,2013-09-08 22:03:00,
2013-09-08 16:08:00,63.7,54.5,29.78,WSW,252,0.0,0.0,72,0.00,CLR,SKC,0.00,WeatherDisplay:10.37,2013-09-08 22:08:00,
2013-09-08 16:13:00,64.4,54.8,29.78,SW,234,1.0,1.0,71,0.00,CLR,SKC,0.00,WeatherDisplay:10.37,2013-09-08 22:13:00,
2013-09-08 16:19:00,65.4,53.7,29.78,SSE,151,2.3,2.3,66,0.00,CLR,SKC,0.00,WeatherDisplay:10.37,2013-09-08 22:19:00,
2013-09-08 16:24:00,65.5,53.4,29.78,SSE,153,1.1,1.1,65,0.00,CLR,SKC,0.00,WeatherDisplay:10.37,2013-09-08 22:24:00,
2013-09-08 16:29:00,65.3,54.1,29.78,SW,231,2.0,2.0,67,0.00,CLR,SKC,0.00,WeatherDisplay:10.37,2013-09-08 22:29:00,
2013-09-08 16:34:00,65.0,54.6,29.78,SW,223,2.3,2.3,69,0.00,CLR,SKC,0.00,WeatherDisplay:10.37,2013-09-08 22:34:00,
2013-09-08 16:39:00,64.9,53.3,29.78,West,272,2.3,2.3,66,0.00,CLR,SKC,0.00,WeatherDisplay:10.37,2013-09-08 22:39:00,
2013-09-08 16:45:00,65.2,51.8,29.78,SW,234,3.5,3.5,62,0.00,CLR,SKC,0.00,WeatherDisplay:10.37,2013-09-08 22:45:00,
2013-09-08 16:50:00,65.6,49.5,29.78,West,281,2.3,2.3,56,0.00,CLR,SKC,0.00,WeatherDisplay:10.37,2013-09-08 22:50:00,
2013-09-08 16:55:00,66.2,49.6,29.78,SSW,193,3.5,3.5,55,0.00,CLR,SKC,0.00,WeatherDisplay:10.37,2013-09-08 22:55:00,
2013-09-08 17:00:00,66.7,48.5,29.78,SW,227,2.3,2.3,52,0.00,CLR,SKC,0.00,WeatherDisplay:10.37,2013-09-08 23:00:00,
2013-09-08 17:06:00,66.7,48.5,29.79,SSW,207,3.0,3.0,52,0.00,CLR,SKC,0.00,WeatherDisplay:10.37,2013-09-08 23:06:00,
2013-09-08 17:11:00,66.6,48.9,29.79,West,276,2.3,2.3,53,0.00,CLR,SKC,0.00,WeatherDisplay:10.37,2013-09-08 23:11:00,
2013-09-08 17:16:00,66.5,48.3,29.79,SW,226,5.8,5.8,52,0.00,CLR,SKC,0.00,WeatherDisplay:10.37,2013-09-08 23:16:00,
2013-09-08 17:21:00,66.5,46.7,29.79,WNW,285,3.5,3.5,49,0.00,CLR,SKC,0.00,WeatherDisplay:10.37,2013-09-08 23:21:00,
2013-09-08 17:26:00,66.4,46.7,29.79,SSW,207,3.5,3.5,49,0.00,CLR,SKC,0.00,WeatherDisplay:10.37,2013-09-08 23:26:00,
2013-09-08 17:31:00,66.3,46.0,29.79,WSW,254,3.5,3.5,48,0.00,CLR,SKC,0.00,WeatherDisplay:10.37,2013-09-08 23:31:00,
2013-09-08 17:35:00,66.2,47.5,29.80,SW,227,3.5,3.5,51,0.00,CLR,SKC,0.00,WeatherDisplay:10.37,2013-09-08 23:35:00,
2013-09-08 17:40:00,66.1,46.9,29.79,West,278,5.8,5.8,50,0.00,CLR,SKC,0.00,WeatherDisplay:10.37,2013-09-08 23:40:00,
2013-09-08 17:45:00,66.3,46.6,29.80,WSW,251,3.5,3.5,49,0.00,CLR,SKC,0.00,WeatherDisplay:10.37,2013-09-08 23:45:00,
2013-09-08 17:50:00,66.7,46.9,29.80,SSW,202,2.3,2.3,49,0.00,CLR,SKC,0.00,WeatherDisplay:10.37,2013-09-08 23:50:00,
2013-09-08 17:55:00,67.0,45.5,29.80,WNW,287,3.5,3.5,46,0.00,CLR,SKC,0.00,WeatherDisplay:10.37,2013-09-08 23:55:00,
2013-09-08 18:00:00,66.9,46.6,29.80,WNW,288,3.5,3.5,48,0.00,CLR,SKC,0.00,WeatherDisplay:10.37,2013-09-09 00:00:00,
2013-09-08 18:05:00,66.5,46.7,29.80,NW,311,3.5,3.5,49,0.00,CLR,SKC,0.00,WeatherDisplay:10.37,2013-09-09 00:05:00,
2013-09-08 18:10:00,66.2,47.5,29.80,WSW,242,2.3,2.3,51,0.00,CLR,SKC,0.00,WeatherDisplay:10.37,2013-09-09 00:10:00,
2013-09-08 18:15:00,65.8,46.1,29.81,WSW,251,2.3,2.3,49,0.00,CLR,SKC,0.00,WeatherDisplay:10.37,2013-09-09 00:15:00,
2013-09-08 18:20:00,65.6,45.9,29.80,SW,214,3.5,3.5,49,0.00,CLR,SKC,0.00,WeatherDisplay:10.37,2013-09-09 00:20:00,
2013-09-08 18:25:00,65.3,46.2,29.80,SW,226,3.5,0.0,50,0.00,CLR,SKC,0.00,WeatherDisplay:10.37,2013-09-09 00:25:00,
2013-09-08 18:30:00,65.2,46.6,29.80,SW,223,3.5,3.5,51,0.00,CLR,SKC,0.00,WeatherDisplay:10.37,2013-09-09 00:30:00,
2013-09-08 18:35:00,65.2,47.1,29.80,North,5,2.3,2.3,52,0.00,CLR,SKC,0.00,WeatherDisplay:10.37,2013-09-09 00:35:00,
2013-09-08 18:41:00,65.3,48.7,29.80,WSW,248,3.5,3.5,55,0.00,CLR,SKC,0.00,WeatherDisplay:10.37,2013-09-09 00:41:00,
2013-09-08 18:46:00,65.1,46.5,29.80,WNW,302,4.0,4.0,51,0.00,CLR,SKC,0.00,WeatherDisplay:10.37,2013-09-09 00:46:00,
2013-09-08 18:51:00,64.9,46.3,29.80,SW,225,2.3,2.3,51,0.00,CLR,SKC,0.00,WeatherDisplay:10.37,2013-09-09 00:51:00,
2013-09-08 18:56:00,64.6,47.6,29.81,NW,320,1.1,0.0,54,0.00,CLR,SKC,0.00,WeatherDisplay:10.37,2013-09-09 00:56:00,
2013-09-08 19:01:00,64.0,45.5,29.81,SW,231,3.5,3.5,51,0.00,CLR,SKC,0.00,WeatherDisplay:10.37,2013-09-09 01:01:00,
2013-09-08 19:06:00,63.8,46.3,29.81,WSW,253,2.3,2.3,53,0.00,CLR,SKC,0.00,WeatherDisplay:10.37,2013-09-09 01:06:00,
2013-09-08 19:11:00,63.4,46.9,29.81,SW,233,1.1,1.1,55,0.00,CLR,SKC,0.00,WeatherDisplay:10.37,2013-09-09 01:11:00,
2013-09-08 19:16:00,62.9,46.5,29.81,SW,231,3.5,3.5,55,0.00,CLR,SKC,0.00,WeatherDisplay:10.37,2013-09-09 01:16:00,
2013-09-08 19:21:00,62.6,46.7,29.81,SW,230,2.3,2.3,56,0.00,CLR,SKC,0.00,WeatherDisplay:10.37,2013-09-09 01:21:00,
2013-09-08 19:26:00,62.5,46.1,29.80,SW,230,2.3,2.3,55,0.00,CLR,SKC,0.00,WeatherDisplay:10.37,2013-09-09 01:26:00,
2013-09-08 19:31:00,62.4,46.5,29.80,SW,233,1.1,1.1,56,0.00,CLR,SKC,0.00,WeatherDisplay:10.37,2013-09-09 01:31:00,
2013-09-08 19:36:00,62.1,47.1,29.81,SSW,198,3.5,3.5,58,0.00,CLR,SKC,0.00,WeatherDisplay:10.37,2013-09-09 01:36:00,
2013-09-08 19:41:00,61.7,47.2,29.81,SW,215,1.1,0.0,59,0.00,CLR,SKC,0.00,WeatherDisplay:10.37,2013-09-09 01:41:00,
2013-09-08 19:46:00,61.3,47.3,29.81,SE,126,2.0,2.0,60,0.00,CLR,SKC,0.00,WeatherDisplay:10.37,2013-09-09 01:46:00,
2013-09-08 19:51:00,61.1,47.1,29.81,WSW,248,2.3,0.0,60,0.00,CLR,SKC,0.00,WeatherDisplay:10.37,2013-09-09 01:51:00,
2013-09-08 19:56:00,60.9,46.5,29.81,WSW,238,0.0,2.0,59,0.00,CLR,SKC,0.00,WeatherDisplay:10.37,2013-09-09 01:56:00,
2013-09-08 20:01:00,60.9,46.9,29.81,SW,234,0.0,1.0,60,0.00,CLR,SKC,0.00,WeatherDisplay:10.37,2013-09-09 02:01:00,
2013-09-08 20:06:00,60.7,48.9,29.81,SW,229,0.0,1.0,65,0.00,CLR,SKC,0.00,WeatherDisplay:10.37,2013-09-09 02:06:00,
2013-09-08 20:12:00,60.0,47.8,29.81,SW,219,0.0,0.0,64,0.00,CLR,SKC,0.00,WeatherDisplay:10.37,2013-09-09 02:12:00,
2013-09-08 20:17:00,59.5,48.1,29.81,SW,219,0.0,0.2,66,0.00,CLR,SKC,0.00,WeatherDisplay:10.37,2013-09-09 02:17:00,
2013-09-08 20:22:00,58.6,46.9,29.82,SW,219,0.0,0.0,65,0.00,CLR,SKC,0.00,WeatherDisplay:10.37,2013-09-09 02:22:00,
2013-09-08 20:27:00,58.4,46.3,29.82,SSW,197,1.1,1.5,64,0.00,CLR,SKC,0.00,WeatherDisplay:10.37,2013-09-09 02:27:00,
2013-09-08 20:32:00,58.7,46.1,29.82,SSW,197,2.3,2.3,63,0.00,CLR,SKC,0.00,WeatherDisplay:10.37,2013-09-09 02:32:00,
2013-09-08 20:37:00,59.1,46.1,29.82,SSW,194,4.6,4.6,62,0.00,CLR,SKC,0.00,WeatherDisplay:10.37,2013-09-09 02:37:00,
2013-09-08 20:42:00,59.6,47.0,29.82,SW,230,3.5,3.5,63,0.00,CLR,SKC,0.00,WeatherDisplay:10.37,2013-09-09 02:42:00,
2013-09-08 20:47:00,59.4,46.4,29.83,SW,230,0.0,0.1,62,0.00,CLR,SKC,0.00,WeatherDisplay:10.37,2013-09-09 02:47:00,
2013-09-08 20:53:00,59.6,45.2,29.83,NNE,30,1.1,1.1,59,0.00,CLR,SKC,0.00,WeatherDisplay:10.37,2013-09-09 02:53:00,
2013-09-08 20:58:00,59.8,45.4,29.83,ESE,104,1.1,1.1,59,0.00,CLR,SKC,0.00,WeatherDisplay:10.37,2013-09-09 02:58:00,
2013-09-08 21:03:00,59.9,45.5,29.83,ESE,103,1.1,0.0,59,0.00,CLR,SKC,0.00,WeatherDisplay:10.37,2013-09-09 03:03:00,
2013-09-08 21:09:00,59.8,46.3,29.83,SE,144,1.1,1.1,61,0.00,CLR,SKC,0.00,WeatherDisplay:10.37,2013-09-09 03:09:00,
2013-09-08 21:14:00,59.8,45.9,29.83,SSW,204,3.5,3.5,60,0.00,CLR,SKC,0.00,WeatherDisplay:10.37,2013-09-09 03:14:00,
2013-09-08 21:19:00,59.9,46.4,29.83,SSW,207,1.1,1.1,61,0.00,CLR,SKC,0.00,WeatherDisplay:10.37,2013-09-09 03:19:00,
2013-09-08 21:25:00,59.9,45.5,29.83,SSW,206,3.5,3.5,59,0.00,CLR,SKC,0.00,WeatherDisplay:10.37,2013-09-09 03:25:00,
2013-09-08 21:30:00,60.0,46.1,29.84,South,171,2.3,2.3,60,0.00,CLR,SKC,0.00,WeatherDisplay:10.37,2013-09-09 03:30:00,
2013-09-08 21:35:00,59.6,45.2,29.83,SW,236,7.0,7.0,59,0.00,CLR,SKC,0.00,WeatherDisplay:10.37,2013-09-09 03:35:00,
2013-09-08 21:40:00,60.4,45.5,29.83,SSW,206,3.5,3.5,58,0.00,CLR,SKC,0.00,WeatherDisplay:10.37,2013-09-09 03:40:00,
2013-09-08 21:45:00,60.4,45.5,29.83,SW,234,3.5,3.5,58,0.00,CLR,SKC,0.00,WeatherDisplay:10.37,2013-09-09 03:45:00,
2013-09-08 21:50:00,60.4,46.4,29.83,SW,232,8.1,8.1,60,0.00,CLR,SKC,0.00,WeatherDisplay:10.37,2013-09-09 03:50:00,
2013-09-08 21:55:00,60.3,45.0,29.83,South,172,3.5,3.5,57,0.00,CLR,SKC,0.00,WeatherDisplay:10.37,2013-09-09 03:55:00,
2013-09-08 22:00:00,60.0,46.1,29.84,NW,326,2.3,0.0,60,0.00,CLR,SKC,0.00,WeatherDisplay:10.37,2013-09-09 04:00:00,
2013-09-08 22:01:00,59.9,45.1,29.83,ENE,57,1.1,1.1,58,0.00,CLR,SKC,0.00,WeatherDisplay:10.37,2013-09-09 04:01:00,
2013-09-08 22:02:00,59.9,45.5,29.83,ENE,57,1.1,1.1,59,0.00,CLR,SKC,0.00,WeatherDisplay:10.37,2013-09-09 04:02:00,
2013-09-08 22:03:00,59.8,46.7,29.84,West,270,2.3,2.3,62,0.00,CLR,SKC,0.00,WeatherDisplay:10.37,2013-09-09 04:03:00,
2013-09-08 22:08:00,59.5,46.0,29.83,South,179,1.1,0.0,61,0.00,CLR,SKC,0.00,WeatherDisplay:10.37,2013-09-09 04:08:00,
2013-09-08 22:13:00,59.5,46.0,29.84,SSW,206,2.3,2.3,61,0.00,CLR,SKC,0.00,WeatherDisplay:10.37,2013-09-09 04:13:00,
2013-09-08 22:16:00,59.5,45.6,29.84,WSW,245,0.0,2.0,60,0.00,CLR,SKC,0.00,WeatherDisplay:10.37,2013-09-09 04:16:00,
2013-09-08 22:21:00,59.9,45.5,29.84,WSW,238,3.5,3.5,59,0.00,CLR,SKC,0.00,WeatherDisplay:10.37,2013-09-09 04:21:00,
2013-09-08 22:26:00,60.7,45.4,29.83,SSW,207,3.5,3.5,57,0.00,CLR,SKC,0.00,WeatherDisplay:10.37,2013-09-09 04:26:00,
2013-09-08 22:32:00,61.1,45.3,29.83,SW,234,1.1,0.0,56,0.00,CLR,SKC,0.00,WeatherDisplay:10.37,2013-09-09 04:32:00,
2013-09-08 22:37:00,60.5,45.6,29.84,NNE,25,2.3,2.3,58,0.00,CLR,SKC,0.00,WeatherDisplay:10.37,2013-09-09 04:37:00,
2013-09-08 22:43:00,59.6,45.2,29.84,NNE,25,0.0,0.0,59,0.00,CLR,SKC,0.00,WeatherDisplay:10.37,2013-09-09 04:43:00,
2013-09-08 22:48:00,59.0,45.6,29.84,NNE,25,0.0,0.0,61,0.00,CLR,SKC,0.00,WeatherDisplay:10.37,2013-09-09 04:48:00,
2013-09-08 22:53:00,58.5,45.1,29.84,NNE,25,0.0,0.0,61,0.00,CLR,SKC,0.00,WeatherDisplay:10.37,2013-09-09 04:53:00,
2013-09-08 22:58:00,58.0,44.6,29.85,NNE,25,0.0,0.0,61,0.00,CLR,SKC,0.00,WeatherDisplay:10.37,2013-09-09 04:58:00,
2013-09-08 23:03:00,57.5,46.2,29.85,NNE,25,0.0,0.0,66,0.00,CLR,SKC,0.00,WeatherDisplay:10.37,2013-09-09 05:03:00,
2013-09-08 23:08:00,57.1,45.4,29.85,NNE,25,0.0,0.0,65,0.00,CLR,SKC,0.00,WeatherDisplay:10.37,2013-09-09 05:08:00,
2013-09-08 23:13:00,56.6,46.2,29.85,NNE,25,0.0,0.0,68,0.00,CLR,SKC,0.00,WeatherDisplay:10.37,2013-09-09 05:13:00,
2013-09-08 23:18:00,56.4,46.7,29.85,NNE,25,0.0,0.0,70,0.00,CLR,SKC,0.00,WeatherDisplay:10.37,2013-09-09 05:18:00,
2013-09-08 23:23:00,56.2,46.2,29.85,NNE,25,0.0,0.0,69,0.00,CLR,SKC,0.00,WeatherDisplay:10.37,2013-09-09 05:23:00,
2013-09-08 23:28:00,56.0,46.0,29.85,NNE,25,1.1,0.0,69,0.00,CLR,SKC,0.00,WeatherDisplay:10.37,2013-09-09 05:28:00,
2013-09-08 23:33:00,56.1,44.9,29.85,NNE,25,0.0,0.0,66,0.00,CLR,SKC,0.00,WeatherDisplay:10.37,2013-09-09 05:33:00,
2013-09-08 23:38:00,56.0,45.6,29.85,NNE,25,0.0,0.0,68,0.00,CLR,SKC,0.00,WeatherDisplay:10.37,2013-09-09 05:38:00,
2013-09-08 23:43:00,55.8,47.3,29.85,NNE,25,0.0,0.0,73,0.00,CLR,SKC,0.00,WeatherDisplay:10.37,2013-09-09 05:43:00,
2013-09-08 23:48:00,55.4,46.9,29.86,NNE,25,0.0,0.0,73,0.00,CLR,SKC,0.00,WeatherDisplay:10.37,2013-09-09 05:48:00,
2013-09-08 23:53:00,55.0,46.9,29.86,NNE,25,0.0,0.0,74,0.00,CLR,SKC,0.00,WeatherDisplay:10.37,2013-09-09 05:53:00,
2013-09-08 23:58:00,54.5,46.7,29.86,NNE,25,1.1,0.0,75,0.00,CLR,SKC,0.00,WeatherDisplay:10.37,2013-09-09 05:58:00,